Junction, TX

2:29 AM CDT on June 24, 2017 (GMT -0500)
Kimble County

Weather History for KJCT - December, 2012

Change the Weather History Date:

Saturday, December 1, 2012

  Actual Average Record
Temperature  
Mean Temperature 62 °F -  
Max Temperature 73 °F 62 °F 73 °F (2007)
Min Temperature 52 °F 37 °F 17 °F (2010)
Degree Days  
Heating Degree Days 2    
Growing Degree Days 12 (Base 50)    
Moisture  
Dew Point 55 °F    
Average Humidity 78    
Maximum Humidity 94    
Minimum Humidity 45    
Precipitation  
Precipitation 0.00 in - - ()
Sea Level Pressure  
Sea Level Pressure 30.02 in    
Wind  
Wind Speed 2 mph (SSW)    
Max Wind Speed 14 mph    
Max Gust Speed 20 mph    
Visibility 6 miles    
Events      
Averages and records for this station are not official NWS values.
T = Trace of Precipitation, MM = Missing Value Source: NWS Daily Summary

Daily Weather History Graph

Daily Weather History Graph

Search for Another Location

Airport or City:

Trip Planner

Search our weather history database for the weather conditions in past years. The results will help you decide how hot, cold, wet, or windy it might be!

Date:

Astronomy

Dec. 01, 2012 Rise Set
Actual Time 7:18 AM CST 5:37 PM CST
Civil Twilight 6:52 AM CST 6:03 PM CST
Nautical Twilight 6:22 AM CST 6:33 PM CST
Astronomical Twilight 5:53 AM CST 7:02 PM CST
Moon 8:25 PM CST (12/1) 9:35 AM CST (12/1)
Length of Visible Light 11h 11m
Length of Day
10h 18m
Waning Gibbous, 91% of the Moon is Illuminated
Dec 1
Waning Gibbous
Dec 6
Last Quarter
Dec 13
New
Dec 19
First Quarter
Dec 28
Full

Hourly Weather History & Observations

Time (CST) Temp. Heat Index Dew Point Humidity Pressure Visibility Wind Dir Wind Speed Gust Speed Precip Events Conditions
12:51 AM 59.0 °F - 55.9 °F 90% 30.00 in 7.0 mi Calm Calm - N/A   Clear
1:51 AM 57.9 °F - 55.0 °F 90% 29.99 in 6.0 mi Calm Calm - N/A   Clear
2:46 AM 53.6 °F - 51.8 °F 94% 30.07 in 2.5 mi Calm Calm - N/A   Clear
2:51 AM 53.1 °F - 51.1 °F 93% 29.99 in 4.0 mi Calm Calm - N/A   Clear
3:51 AM 52.0 °F - 50.0 °F 93% 29.99 in 5.0 mi Calm Calm - N/A   Clear
4:06 AM 51.8 °F - 50.0 °F 94% 30.07 in 3.0 mi Calm Calm - N/A   Scattered Clouds
4:16 AM 51.8 °F - 50.0 °F 94% 30.07 in 4.0 mi Calm Calm - N/A   Mostly Cloudy
4:27 AM 50.0 °F - 48.2 °F 94% 30.07 in 2.5 mi Calm Calm - N/A   Overcast
4:33 AM 50.0 °F - 48.2 °F 94% 30.07 in 4.0 mi Calm Calm - N/A   Overcast
4:36 AM 51.8 °F - 48.2 °F 88% 30.07 in 1.8 mi Calm Calm - N/A   Overcast
4:46 AM 51.8 °F - 48.2 °F 88% 30.07 in 3.0 mi Calm Calm - N/A   Overcast
4:51 AM 52.0 °F - 50.0 °F 93% 29.99 in 5.0 mi Calm Calm - N/A   Overcast
5:39 AM 57.2 °F - 55.4 °F 94% 30.07 in 6.0 mi Calm Calm - N/A   Scattered Clouds
5:47 AM 53.6 °F - 51.8 °F 94% 30.07 in 6.0 mi Calm Calm - N/A   Mostly Cloudy
5:51 AM 53.1 °F - 50.0 °F 89% 29.99 in 7.0 mi Calm Calm - N/A   Mostly Cloudy
6:35 AM 51.8 °F - 50.0 °F 94% 30.07 in 4.0 mi Calm Calm - N/A   Scattered Clouds
6:51 AM 52.0 °F - 50.0 °F 93% 30.01 in 5.0 mi Calm Calm - N/A   Scattered Clouds
7:00 AM 53.6 °F - 51.8 °F 94% 30.08 in 6.0 mi Calm Calm - N/A   Mostly Cloudy
7:51 AM 57.9 °F - 55.9 °F 93% 30.02 in 4.0 mi Calm Calm - N/A   Overcast
8:40 AM 64.4 °F - 60.8 °F 88% 30.11 in 6.0 mi NW 3.5 mph - N/A   Haze
8:51 AM 66.0 °F - 61.0 °F 84% 30.03 in 6.0 mi Calm Calm - N/A   Haze
9:51 AM 70.0 °F - 61.0 °F 73% 30.04 in 8.0 mi SSW 11.5 mph 18.4 mph N/A   Overcast
10:17 AM 73.4 °F - 60.8 °F 65% 30.12 in 8.0 mi SSW 11.5 mph - N/A   Scattered Clouds
10:51 AM 72.0 °F - 61.0 °F 68% 30.03 in 8.0 mi SW 6.9 mph - N/A   Scattered Clouds
11:02 AM 73.4 °F - 60.8 °F 65% 30.11 in 9.0 mi SW 9.2 mph - N/A   Mostly Cloudy
11:36 AM 75.2 °F - 60.8 °F 61% 30.10 in 9.0 mi SSW 12.7 mph - N/A   Scattered Clouds
11:51 AM 75.0 °F - 60.1 °F 60% 30.01 in 9.0 mi South 12.7 mph 17.3 mph N/A   Partly Cloudy
12:51 PM 78.1 °F - 59.0 °F 52% 29.96 in 9.0 mi SSW 13.8 mph 19.6 mph N/A   Clear
1:51 PM 80.1 °F 80.4 °F 57.0 °F 45% 29.94 in 9.0 mi SW 11.5 mph - N/A   Clear
2:51 PM 81.0 °F 81.1 °F 57.9 °F 45% 29.94 in 8.0 mi SSW 12.7 mph - N/A   Clear
3:51 PM 80.1 °F 80.4 °F 57.0 °F 45% 29.94 in 8.0 mi SSW 10.4 mph - N/A   Clear
4:51 PM 78.1 °F - 57.0 °F 48% 29.95 in 8.0 mi South 8.1 mph - N/A   Clear
5:51 PM 73.9 °F - 57.9 °F 57% 29.96 in 8.0 mi South 6.9 mph - N/A   Clear
6:51 PM 71.1 °F - 57.9 °F 63% 29.97 in 9.0 mi South 5.8 mph - N/A   Clear
7:51 PM 66.9 °F - 57.9 °F 73% 29.98 in 8.0 mi Calm Calm - N/A   Clear
8:51 PM 66.9 °F - 59.0 °F 76% 29.98 in 8.0 mi South 5.8 mph - N/A   Clear
9:51 PM 64.9 °F - 57.9 °F 78% 29.99 in 7.0 mi SSE 4.6 mph - N/A   Clear
10:51 PM 64.9 °F - 57.9 °F 78% 29.99 in 7.0 mi Calm Calm - N/A   Clear
11:51 PM 64.9 °F - 57.9 °F 78% 30.00 in 7.0 mi SSE 3.5 mph - N/A   Clear